Wind_Speed
17 16 15 15 15 16 15 15 13 12 13 14 16 18 21 24 27 31 33 34 32 32 31 28 26 25 25 27 28 30 33 35 36 38 41 41 40 39 37 36 35 34 34 34
16 15 14 14 14 14 13 12 11 10 10 12 14 17 19 22 25 28 29 28 26 24 22 18 16 15 15 17 20 23 26 28 29 31 34 34 33 32 32 31 31 31 31 31
15 14 13 12 12 11 10 10 10 9 9 10 13 16 17 20 22 24 24 23 22 19 15 11 8 8 8 11 14 18 20 23 24 26 27 28 28 27 27 27 27 27 28 29
14 12 11 10 10 9 8 8 8 8 8 10 12 14 16 18 19 20 21 20 18 16 12 9 4 1 5 8 12 15 17 19 21 22 23 22 22 22 22 23 24 25 27 30
13 11 10 9 8 8 8 8 7 7 8 11 12 13 15 16 17 18 18 17 16 14 12 10 8 8 9 11 14 15 17 18 19 19 19 19 18 19 19 21 22 25 30 34
12 11 10 9 8 7 7 7 6 7 8 10 11 11 12 13 14 15 15 15 14 12 11 11 11 12 12 14 15 15 16 16 16 16 16 16 17 18 20 23 26 29 31 34
12 11 10 9 8 7 7 6 6 7 7 8 9 10 10 11 12 12 12 12 11 11 11 11 11 12 12 13 14 14 14 14 13 13 13 14 16 18 20 23 26 28 30 34
13 12 11 9 9 8 7 7 6 6 7 8 9 9 9 9 10 10 10 9 9 9 10 10 10 11 11 11 11 10 9 9 10 10 11 13 16 18 20 23 26 29 32 35
14 13 12 11 10 9 8 7 7 7 7 8 8 8 8 8 9 9 9 8 7 7 7 7 8 7 7 7 6 5 4 5 6 7 10 12 15 17 21 24 27 30 32 35
14 13 13 12 10 9 9 8 7 7 8 8 8 8 7 7 7 7 7 7 6 5 5 5 5 5 4 3 2 0 2 4 6 8 11 13 16 19 22 25 28 30 33 35
15 14 13 12 12 10 9 9 8 8 8 8 8 8 7 6 6 6 6 6 5 5 4 4 4 4 4 3 4 4 6 7 9 11 13 16 18 21 24 26 28 30 33 37
16 15 14 13 13 11 10 9 9 8 8 8 8 8 7 7 7 6 6 5 5 5 5 5 5 5 5 5 6 8 9 11 13 14 16 18 20 22 24 27 29 32 35 39
17 17 15 14 13 12 11 10 10 10 9 9 8 8 7 7 7 6 6 5 6 6 6 6 7 7 7 8 10 11 13 14 15 17 18 20 22 24 26 28 31 34 38 42
18 17 16 16 15 14 12 11 11 11 10 10 9 9 9 8 7 7 6 6 7 7 7 8 8 9 10 11 13 14 15 16 17 19 20 22 24 26 28 31 34 37 41 45
19 18 17 17 16 15 14 13 13 12 11 11 10 10 9 9 8 8 8 8 8 9 9 10 11 12 13 14 15 16 17 18 19 21 22 24 26 28 30 33 37 40 44 48
19 19 18 18 18 17 15 15 14 14 13 12 12 11 11 10 10 10 10 10 11 11 11 12 13 14 16 17 18 18 19 20 22 23 24 26 28 30 33 36 39 43 46 50
19 20 20 20 19 18 17 16 16 15 14 14 13 12 12 12 12 12 12 12 12 13 14 14 15 17 18 19 19 20 21 22 24 25 26 28 30 33 36 39 42 46 49 52
19 19 20 20 20 19 18 17 17 16 16 16 15 15 14 14 13 13 13 14 14 15 16 16 18 19 20 20 21 22 23 24 25 27 28 30 32 35 38 41 45 48 50 53
17 18 18 19 19 19 18 17 17 17 17 17 16 16 16 15 15 15 15 15 16 16 17 18 20 20 21 22 23 24 25 26 27 28 30 32 35 37 40 43 47 49 52 53
16 16 17 18 18 18 18 17 17 17 17 17 17 17 16 16 16 16 17 17 18 18 19 20 21 22 22 23 24 25 26 27 29 30 32 34 36 39 42 45 48 51 52 52
15 15 16 17 17 18 18 18 18 17 17 17 17 17 17 17 18 18 19 19 20 20 21 21 22 23 23 24 26 27 28 29 30 32 34 36 38 41 44 47 49 51 52 50
16 16 16 16 17 18 18 19 19 18 19 18 18 18 18 19 19 20 20 20 21 21 22 22 23 24 25 26 27 28 29 30 32 34 35 37 40 43 45 48 49 50 51 47
17 18 18 18 18 19 19 20 20 20 21 21 20 20 21 20 20 21 21 22 22 22 23 23 24 25 26 27 28 29 30 32 33 35 36 39 41 44 46 48 50 50 48 43
19 20 20 20 21 21 22 22 22 23 22 22 21 21 22 21 21 22 22 23 23 23 24 25 26 26 27 28 29 30 31 33 34 36 38 40 42 44 47 49 50 49 45 40
22 23 23 23 23 23 23 23 23 23 23 23 23 23 23 23 23 24 24 25 25 25 26 26 27 27 28 29 30 31 32 33 35 37 38 40 42 45 48 49 49 46 41 37
26 26 26 26 27 27 26 26 26 25 25 25 26 26 26 26 26 26 26 26 26 26 27 27 28 28 29 30 31 31 33 34 35 37 38 40 43 47 48 49 46 42 38 34
31 30 31 31 31 30 30 30 30 30 29 29 29 29 28 28 27 27 27 27 27 27 27 28 29 29 30 30 31 32 33 34 36 37 38 41 44 47 47 46 43 39 35 31
Wind_Direction
230 234 241 248 257 264 270 276 283 288 292 295 302 307 312 316 318 320 319 318 313 307 302 294 284 274 263 253 245 238 232 230 230 229 227 226 227 228 232 237 241 246 252 257
232 237 242 248 255 261 268 276 286 293 300 307 317 321 324 326 328 331 331 331 328 321 315 304 288 272 255 242 232 225 220 219 220 220 219 219 220 224 230 234 240 246 252 259
234 239 242 245 254 260 267 278 290 297 307 319 327 328 331 334 338 340 341 343 343 340 335 323 300 270 236 213 204 202 203 205 205 206 208 211 215 221 227 232 239 247 253 260
233 237 243 253 255 257 268 279 289 299 312 323 327 332 336 342 347 351 352 355 358 0 5 9 20 117 169 177 180 182 184 186 188 191 196 203 209 218 227 235 243 250 257 263
231 236 240 245 247 250 262 278 289 304 317 325 327 332 340 346 353 359 1 6 12 20 31 44 63 92 117 133 145 155 162 167 174 180 187 196 207 217 228 239 249 259 262 266
224 229 233 235 238 245 256 270 288 304 317 326 331 335 343 348 356 4 9 15 24 33 48 62 78 97 112 123 132 140 148 157 167 175 185 196 211 226 236 244 253 262 269 274
219 223 228 229 234 239 250 264 283 300 315 326 331 337 344 350 358 5 12 21 32 46 59 72 85 97 109 119 127 136 145 158 174 191 202 212 224 235 246 257 265 272 278 282
216 221 224 227 234 241 252 262 277 295 311 320 327 335 341 346 354 1 9 20 35 54 67 76 86 96 107 115 125 138 155 175 187 198 215 231 240 251 262 270 276 281 286 290
221 224 227 231 239 245 253 262 276 291 305 314 320 327 334 337 344 353 4 17 30 47 65 75 81 85 94 104 115 140 166 198 223 234 246 259 267 274 280 284 288 292 295 298
224 225 227 233 240 247 255 261 274 290 302 307 314 318 322 332 340 348 359 8 21 35 48 58 53 50 52 69 75 142 265 271 274 276 279 282 285 288 291 294 297 299 301 303
224 226 228 234 240 247 254 261 274 285 295 301 306 311 312 316 324 331 343 355 3 11 15 16 18 18 9 359 343 325 313 303 298 295 294 295 297 298 300 301 303 305 306 307
224 226 229 235 241 247 253 260 270 279 287 292 296 300 301 305 309 315 319 328 339 346 350 351 351 347 340 330 322 315 309 305 303 303 303 304 305 305 306 307 307 308 309 310
225 229 233 238 243 248 254 262 268 273 277 281 285 289 291 296 299 301 304 308 317 322 323 326 328 326 324 320 316 313 310 309 308 309 309 310 310 310 310 310 310 311 312 313
228 232 236 239 243 248 255 261 267 271 270 271 276 280 281 284 287 287 291 300 307 311 312 314 317 318 319 317 316 315 313 312 312 312 312 312 312 312 312 313 314 314 315 316
231 234 237 239 242 248 254 260 265 267 266 267 268 272 276 278 277 276 282 292 299 304 305 305 310 314 316 316 316 315 315 313 313 312 312 313 313 313 314 315 316 317 318 318
234 237 239 241 244 248 254 259 262 262 263 265 263 266 269 274 277 276 279 286 293 298 301 302 306 310 312 312 313 313 313 313 312 312 312 312 312 313 315 316 317 319 320 320
238 240 242 243 244 247 253 257 258 258 259 261 261 263 266 271 275 277 279 284 290 294 297 300 303 307 309 309 309 310 311 311 311 311 312 312 313 314 316 318 319 320 321 322
241 242 243 243 244 247 250 253 255 256 256 258 259 260 263 269 272 274 277 283 288 292 296 298 301 304 306 307 308 309 309 310 311 311 312 312 314 315 317 319 321 321 322 324
241 242 243 244 244 246 249 253 255 255 256 257 257 259 262 266 270 273 277 281 285 290 294 298 300 302 304 305 307 308 309 310 311 311 312 313 315 316 318 320 322 323 324 325
239 239 241 243 244 244 246 250 253 254 255 255 257 258 260 264 269 273 276 280 284 288 292 296 298 300 302 304 306 307 308 309 310 312 313 314 316 318 319 321 323 324 325 326
243 242 242 243 243 243 246 249 253 255 254 254 256 258 262 266 270 274 277 280 284 287 291 295 298 300 302 303 305 307 308 309 310 312 313 315 317 319 321 322 324 325 326 326
246 247 248 246 244 243 246 250 253 253 254 256 259 261 264 268 270 273 277 281 284 288 291 295 297 300 302 304 306 308 309 310 311 312 314 315 318 320 322 324 325 325 326 326
250 250 251 249 249 249 248 249 250 253 256 259 262 264 266 269 272 274 277 281 285 289 291 294 297 300 302 305 306 308 308 310 311 313 314 316 319 321 323 325 326 326 326 325
253 252 253 253 252 252 252 252 252 254 256 259 261 264 266 268 272 275 278 281 284 287 290 294 297 299 302 304 306 307 308 310 312 313 315 318 320 322 324 326 326 326 325 324
257 255 255 255 255 255 254 254 254 256 257 259 261 263 265 268 272 275 278 281 283 286 289 293 295 298 300 303 305 307 309 311 313 315 317 319 321 324 325 326 327 326 325 323
261 260 259 258 258 257 256 256 256 257 258 259 261 263 265 268 270 273 277 279 281 285 288 291 294 297 300 302 305 307 310 312 314 316 318 320 322 324 326 327 328 327 326 323
265 264 262 260 259 259 259 258 257 258 258 259 261 262 264 266 269 272 275 278 280 283 286 290 293 296 299 302 304 306 309 312 314 316 318 321 323 326 328 329 329 328 326 323
Height
5641 5643 5644 5646 5647 5647 5647 5647 5647 5647 5645 5643 5640 5636 5633 5628 5622 5615 5606 5596 5587 5579 5571 5565 5561 5560 5559 5561 5565 5569 5575 5581 5587 5594 5601 5609 5616 5624 5630 5635 5640 5643 5646 5647
5637 5639 5640 5641 5642 5642 5642 5642 5642 5641 5640 5638 5635 5631 5627 5622 5616 5609 5600 5591 5582 5573 5566 5560 5557 5555 5554 5556 5559 5563 5569 5575 5582 5589 5597 5605 5612 5619 5624 5629 5633 5636 5638 5639
5634 5635 5636 5638 5638 5638 5639 5638 5638 5637 5636 5634 5631 5627 5623 5618 5612 5605 5597 5588 5580 5572 5565 5560 5556 5554 5553 5555 5557 5562 5567 5573 5580 5587 5595 5602 5609 5615 5620 5624 5627 5629 5631 5632
5630 5632 5633 5636 5635 5635 5635 5635 5635 5634 5632 5630 5628 5624 5620 5615 5610 5603 5596 5588 5581 5574 5568 5563 5559 5557 5556 5557 5560 5564 5569 5574 5580 5587 5594 5600 5606 5611 5615 5619 5621 5623 5624 5624
5627 5629 5630 5632 5632 5632 5633 5633 5632 5631 5629 5627 5624 5622 5618 5613 5608 5603 5597 5590 5584 5578 5572 5568 5564 5563 5562 5563 5565 5568 5572 5577 5582 5588 5593 5599 5604 5608 5612 5614 5616 5616 5617 5616
5625 5626 5628 5630 5630 5630 5631 5631 5630 5628 5627 5625 5622 5620 5617 5612 5608 5603 5598 5593 5587 5582 5578 5574 5571 5570 5569 5570 5571 5574 5577 5581 5585 5590 5594 5598 5602 5605 5607 5609 5610 5610 5609 5608
5622 5623 5625 5627 5627 5628 5630 5630 5627 5626 5624 5622 5620 5618 5615 5611 5608 5604 5600 5596 5591 5587 5583 5580 5578 5577 5576 5576 5577 5579 5581 5584 5588 5591 5594 5597 5600 5602 5603 5604 5604 5603 5602 5599
5619 5621 5625 5624 5625 5626 5626 5625 5624 5623 5622 5620 5618 5616 5613 5610 5608 5604 5601 5598 5594 5591 5588 5586 5584 5582 5582 5582 5583 5584 5586 5588 5590 5592 5594 5596 5597 5598 5599 5599 5598 5596 5594 5591
5618 5621 5621 5621 5622 5623 5623 5622 5622 5621 5620 5618 5616 5614 5612 5610 5607 5604 5602 5599 5597 5594 5592 5590 5589 5588 5587 5587 5587 5588 5589 5590 5591 5593 5594 5594 5595 5594 5594 5593 5591 5588 5585 5581
5614 5616 5617 5618 5619 5619 5619 5619 5619 5618 5617 5616 5614 5612 5611 5609 5606 5604 5602 5600 5598 5596 5594 5593 5592 5591 5590 5590 5590 5590 5590 5591 5591 5592 5592 5591 5591 5590 5588 5586 5583 5580 5576 5572
5610 5612 5614 5615 5615 5616 5616 5616 5616 5615 5614 5613 5612 5611 5609 5608 5606 5604 5602 5601 5599 5597 5596 5595 5594 5593 5592 5591 5591 5591 5591 5590 5590 5589 5588 5587 5586 5584 5582 5579 5576 5572 5568 5564
5607 5609 5610 5611 5612 5613 5613 5613 5613 5612 5612 5611 5610 5609 5607 5606 5605 5603 5602 5601 5599 5598 5597 5595 5594 5593 5593 5592 5591 5590 5590 5589 5587 5586 5584 5582 5580 5578 5575 5572 5569 5565 5560 5555
5603 5604 5606 5607 5608 5609 5609 5609 5609 5609 5608 5608 5607 5606 5605 5604 5603 5602 5601 5600 5599 5598 5597 5595 5594 5593 5592 5591 5590 5589 5587 5585 5584 5582 5580 5578 5575 5572 5569 5566 5562 5557 5551 5545
5598 5600 5602 5603 5604 5605 5605 5606 5606 5605 5605 5605 5604 5604 5603 5602 5601 5601 5600 5599 5598 5597 5596 5595 5593 5592 5591 5589 5588 5586 5584 5582 5580 5577 5575 5572 5569 5566 5562 5558 5554 5548 5542 5535
5594 5595 5597 5598 5600 5601 5601 5602 5602 5602 5602 5601 5601 5601 5600 5600 5599 5599 5598 5597 5596 5595 5594 5593 5591 5590 5588 5586 5584 5582 5580 5578 5575 5573 5570 5567 5564 5560 5556 5551 5546 5540 5533 5525
5589 5590 5592 5593 5595 5596 5597 5597 5598 5598 5598 5598 5598 5598 5597 5597 5596 5596 5595 5594 5594 5593 5591 5590 5589 5587 5585 5583 5581 5578 5576 5573 5571 5568 5565 5561 5558 5554 5549 5543 5537 5531 5523 5514
5583 5585 5587 5588 5590 5591 5592 5593 5593 5593 5594 5594 5594 5594 5594 5593 5593 5593 5592 5591 5590 5589 5588 5587 5585 5583 5581 5579 5577 5574 5571 5569 5566 5563 5559 5555 5551 5547 5541 5535 5528 5521 5513 5504
5578 5580 5581 5583 5584 5585 5586 5587 5588 5588 5589 5589 5589 5589 5590 5589 5589 5589 5588 5587 5586 5585 5584 5582 5581 5579 5577 5574 5572 5569 5567 5564 5560 5557 5553 5549 5544 5539 5533 5527 5520 5511 5502 5493
5573 5574 5576 5577 5579 5580 5581 5582 5582 5583 5584 5584 5584 5585 5585 5585 5585 5584 5584 5583 5582 5581 5579 5578 5576 5574 5572 5569 5567 5564 5561 5558 5554 5551 5547 5542 5537 5532 5525 5518 5510 5502 5493 5483
5568 5570 5571 5572 5573 5575 5576 5577 5577 5578 5578 5579 5579 5580 5580 5580 5580 5579 5579 5578 5577 5576 5574 5573 5571 5569 5566 5564 5561 5558 5555 5552 5548 5544 5540 5535 5529 5524 5517 5509 5501 5492 5482 5473
5564 5565 5566 5567 5568 5569 5571 5571 5572 5573 5573 5574 5574 5574 5575 5575 5574 5574 5573 5573 5572 5570 5569 5567 5565 5563 5560 5558 5555 5552 5549 5545 5541 5537 5532 5527 5522 5515 5508 5500 5491 5482 5473 5463
5559 5560 5561 5562 5563 5564 5565 5566 5567 5568 5568 5569 5569 5569 5569 5569 5569 5568 5568 5567 5566 5564 5563 5561 5559 5557 5554 5552 5549 5546 5542 5539 5534 5530 5525 5519 5513 5507 5499 5491 5482 5473 5463 5454
5554 5555 5556 5557 5558 5559 5560 5560 5561 5562 5562 5563 5563 5563 5563 5563 5563 5562 5562 5561 5560 5558 5557 5555 5553 5551 5548 5545 5542 5539 5535 5531 5527 5522 5517 5511 5505 5498 5490 5482 5473 5463 5454 5445
5548 5549 5550 5551 5552 5553 5553 5554 5555 5555 5556 5556 5556 5557 5557 5557 5556 5556 5555 5554 5553 5552 5550 5548 5546 5544 5541 5539 5535 5532 5528 5524 5519 5514 5509 5503 5496 5489 5481 5472 5463 5454 5445 5437
5541 5542 5543 5544 5545 5545 5546 5547 5547 5548 5548 5549 5549 5549 5550 5549 5549 5549 5548 5547 5546 5545 5543 5541 5539 5537 5534 5532 5528 5525 5521 5516 5512 5507 5501 5495 5488 5480 5472 5463 5454 5445 5436 5429
5533 5534 5535 5536 5536 5537 5538 5539 5539 5540 5541 5541 5541 5542 5542 5542 5541 5541 5540 5539 5538 5537 5536 5534 5532 5530 5527 5524 5521 5517 5513 5509 5504 5499 5493 5486 5479 5472 5463 5454 5445 5436 5428 5421
5524 5525 5525 5526 5527 5528 5528 5529 5530 5531 5532 5532 5533 5533 5533 5533 5533 5532 5532 5531 5531 5529 5528 5526 5524 5522 5519 5517 5513 5510 5506 5501 5496 5491 5485 5478 5471 5463 5454 5445 5437 5429 5421 5415